ランキン彗星

P/2024 T2 ( Rankin )

English version
Home page
Updated on November 27, 2024

---------------------------------------------------------------------

・ プロフィール

発見日 2024年10月4日
発見光度 21.1等
発見者 David Rankin (Mt. Lemmon Survey)

・ 写真集

・ 軌道要素

Epoch 2024 Oct. 17.0 TT = JDT 2460600.5
T 2024 Dec. 8.29127 TT                                  Rudenko
q   1.9728212            (2000.0)            P               Q
n   0.06385067     Peri.  343.79752     -0.12616940     -0.97042458
a   6.1995346      Node   113.07517     +0.93317649     -0.18648900
e   0.6817791      Incl.   12.92690     +0.33654556     +0.15329055
P  15.4
From 66 observations 2024 Oct. 4-Nov. 14, mean residual 0".5.

・ 光度変化

        m1 = 15.5 + 5 logΔ + 10.0 log r

---------------------------------------------------------------------

軌道要素はM.P.E.C. 2024-V192に掲載されたものです。
光度グラフはComet for Windowsで作成したものです。

---------------------------------------------------------------------

Copyright(C) Seiichi Yoshida (comet@aerith.net). All rights reserved.